This is the latest recevied weather packets stored in our database for station/object DL0BB-10. If no packets are shown the sender has not sent any weather packets the latest 10 day(s).
| Time | Temp. | Humidity | Pressure | Rain* | Wind** | Luminosity | Snow |
|---|---|---|---|---|---|---|---|
| 1788151483 | 25.56° C | 42% | 1016.9 hPa | - | - | - | - |
| 1788150583 | 26.11° C | 41% | 1016.8 hPa | - | - | - | - |
| 1788149682 | 26.11° C | 41% | 1016.7 hPa | - | - | - | - |
| 1788148782 | 25.56° C | 42% | 1016.5 hPa | - | - | - | - |
| 1788147882 | 25.56° C | 42% | 1016.4 hPa | - | - | - | - |
| 1788146982 | 26.11° C | 41% | 1016.5 hPa | - | - | - | - |
| 1788146082 | 26.11° C | 42% | 1016.4 hPa | - | - | - | - |
| 1788145181 | 25.56° C | 42% | 1016.4 hPa | - | - | - | - |
| 1788144287 | 26.11° C | 41% | 1016.3 hPa | - | - | - | - |
| 1788143387 | 26.67° C | 40% | 1016.1 hPa | - | - | - | - |
| 1788142487 | 25.56° C | 42% | 1015.8 hPa | - | - | - | - |
| 1788141586 | 25.56° C | 42% | 1015.8 hPa | - | - | - | - |
| 1788140686 | 26.11° C | 40% | 1015.8 hPa | - | - | - | - |
| 1788139786 | 26.67° C | 40% | 1015.6 hPa | - | - | - | - |
| 1788138886 | 25.56° C | 42% | 1015.4 hPa | - | - | - | - |
| 1788137986 | 26.11° C | 41% | 1015.7 hPa | - | - | - | - |
| 1788137086 | 26.11° C | 40% | 1015.8 hPa | - | - | - | - |
| 1788136186 | 26.67° C | 40% | 1015.8 hPa | - | - | - | - |
| 1788135286 | 26.11° C | 42% | 1016 hPa | - | - | - | - |
| 1788134386 | 26.11° C | 41% | 1015.6 hPa | - | - | - | - |
| 1788133486 | 26.67° C | 40% | 1015.2 hPa | - | - | - | - |
| 1788132585 | 26.67° C | 40% | 1015 hPa | - | - | - | - |
| 1788131685 | 26.11° C | 42% | 1015.4 hPa | - | - | - | - |
| 1788130785 | 26.11° C | 41% | 1015.5 hPa | - | - | - | - |
| 1788129885 | 26.67° C | 40% | 1013.7 hPa | - | - | - | - |
* Rain since midnight (hover to see other rain measurements)
** Current wind speed in m/s (hover to see current wind gust speed)